GW3513 Weather Reports


Display with metric or nautical units.
time (UTC)temp
F
wind
direction
speed
MPH
gust
MPH
rain 1hr
in
rain 24hr
in
rain mn
in
humidity
%
barometer
mb
20260905032104 82 161 0.0 0.0 0.00 0.00 0.00 62 1017.9
20260905031600 83 161 0.0 0.0 0.00 0.00 0.00 61 1018.0
20260905031100 83 161 0.0 0.0 0.00 0.00 0.00 61 1018.0
20260905030555 82 161 0.0 0.0 0.00 0.00 0.00 62 1017.8
20260905030050 82 161 0.0 0.0 0.00 0.00 0.00 62 1017.8
20260905025545 82 161 0.0 0.0 0.00 0.00 0.00 63 1017.8
20260905025041 82 161 0.0 0.0 0.00 0.00 0.00 62 1017.6
20260905024536 82 161 0.0 0.0 0.00 0.00 0.00 63 1017.5
20260905024032 81 161 0.0 0.0 0.00 0.00 0.00 65 1017.5
20260905023527 81 161 0.0 0.0 0.00 0.00 0.00 66 1017.5
20260905023026 81 161 0.0 0.0 0.00 0.00 0.00 65 1017.4
20260905022520 81 161 0.0 0.0 0.00 0.00 0.00 65 1017.4
20260905022016 81 161 0.0 0.0 0.00 0.00 0.00 65 1017.2
20260905021515 81 161 0.0 0.0 0.00 0.00 0.00 65 1017.1
20260905021011 82 161 0.0 0.0 0.00 0.00 0.00 64 1017.0
20260905020505 83 161 0.0 0.0 0.00 0.00 0.00 63 1017.0
20260905020000 83 161 0.0 0.0 0.00 0.00 0.00 61 1016.9
20260905015458 82 161 0.0 0.0 0.00 0.00 0.00 62 1016.8
20260905014957 83 161 0.0 0.0 0.00 0.00 0.00 62 1016.8
20260905014453 83 161 0.0 0.0 0.00 0.00 0.00 62 1016.9
20260905013948 83 161 0.0 0.0 0.00 0.00 0.00 61 1016.8
20260905013444 84 161 0.0 0.0 0.00 0.00 0.00 60 1016.8
20260905012939 84 161 0.0 0.0 0.00 0.00 0.00 59 1016.6
20260905012434 84 161 0.0 0.0 0.00 0.00 0.00 59 1016.7
20260905011931 85 161 0.0 0.0 0.00 0.00 0.00 58 1016.7
20260905011427 86 161 0.0 0.0 0.00 0.00 0.00 57 1016.6
20260905010922 87 161 0.0 0.0 0.00 0.00 0.00 54 1016.6
20260905010417 88 161 0.0 0.0 0.00 0.00 0.00 53 1016.7
20260905005913 88 161 0.0 0.0 0.00 0.00 0.00 52 1016.6
20260905005409 89 161 0.0 0.0 0.00 0.00 0.00 51 1016.6
20260905004904 89 161 0.0 0.0 0.00 0.00 0.00 50 1016.6
20260905004404 90 161 0.0 0.0 0.00 0.00 0.00 49 1016.4
20260905003858 91 161 0.0 0.0 0.00 0.00 0.00 48 1016.5
20260905003355 92 161 0.0 0.0 0.00 0.00 0.00 47 1016.3
20260905002850 93 161 0.0 0.0 0.00 0.00 0.00 45 1016.2
20260905002349 93 161 0.0 0.0 0.00 0.00 0.00 45 1016.4
20260905001844 93 161 0.0 0.0 0.00 0.00 0.00 45 1016.6
20260905001339 93 161 0.0 0.0 0.00 0.00 0.00 45 1016.3
20260905000834 94 161 0.0 0.0 0.00 0.00 0.00 44 1016.4
20260905000329 94 161 0.0 0.0 0.00 0.00 0.00 44 1016.4
20260904235825 95 161 0.0 0.0 0.00 0.00 0.00 43 1016.3
20260904235320 95 161 0.0 0.0 0.00 0.00 0.00 42 1016.5
20260904234814 96 161 0.0 0.0 0.00 0.00 0.00 42 1016.4
20260904234309 96 161 0.0 0.0 0.00 0.00 0.00 41 1016.3
20260904233805 96 161 0.0 0.0 0.00 0.00 0.00 41 1016.3
20260904233255 97 161 0.0 0.0 0.00 0.00 0.00 40 1016.5
20260904232751 98 161 0.0 0.0 0.00 0.00 0.00 39 1016.6
20260904232248 99 161 0.0 0.0 0.00 0.00 0.00 38 1016.4
20260904231742 101 161 0.0 0.0 0.00 0.00 0.00 36 1016.4
20260904231233 105 161 0.0 0.0 0.00 0.00 0.00 34 1016.5
20260904230733 107 162 0.0 0.0 0.00 0.00 0.00 32 1016.4
20260904230227 107 162 0.0 0.0 0.00 0.00 0.00 32 1016.5
20260904225727 109 162 0.0 0.0 0.00 0.00 0.00 31 1016.5
20260904225220 110 162 0.0 0.0 0.00 0.00 0.00 31 1016.4
20260904224719 110 162 0.0 0.0 0.00 0.00 0.00 30 1016.6
20260904224215 112 162 0.0 0.0 0.00 0.00 0.00 29 1016.4
20260904223714 110 162 0.0 0.0 0.00 0.00 0.00 30 1016.2
20260904223209 107 162 0.0 0.0 0.00 0.00 0.00 31 1016.3
20260904222705 108 162 0.0 0.0 0.00 0.00 0.00 32 1016.3
20260904222201 106 162 0.0 0.0 0.00 0.00 0.00 32 1016.4
20260904221659 107 161 0.0 0.0 0.00 0.00 0.00 33 1016.5
20260904221155 112 162 0.0 0.0 0.00 0.00 0.00 28 1016.4
20260904220649 115 162 0.0 0.0 0.00 0.00 0.00 26 1016.6
20260904220144 118 162 0.0 0.0 0.00 0.00 0.00 25 1016.6
20260904215639 118 162 0.0 0.0 0.00 0.00 0.00 24 1016.6
20260904215136 118 162 0.0 0.0 0.00 0.00 0.00 24 1016.6
20260904214636 117 162 0.0 0.0 0.00 0.00 0.00 24 1016.7
20260904214131 115 161 0.0 0.0 0.00 0.00 0.00 26 1016.7
20260904213629 118 162 0.0 0.0 0.00 0.00 0.00 25 1016.5
20260904213125 120 162 0.0 0.0 0.00 0.00 0.00 24 1016.8
20260904212620 121 162 0.0 0.0 0.00 0.00 0.00 24 1016.7
20260904212115 125 161 0.0 0.0 0.00 0.00 0.00 22 1016.8
20260904211614 123 161 0.0 0.0 0.00 0.00 0.00 23 1016.8
20260904211109 123 161 0.0 0.0 0.00 0.00 0.00 23 1016.9
20260904210604 123 161 0.0 0.0 0.00 0.00 0.00 23 1016.9
20260904210059 121 161 0.0 0.0 0.00 0.00 0.00 23 1017.1
20260904205555 116 162 0.0 0.0 0.00 0.00 0.00 26 1016.9
20260904205051 121 162 0.0 0.0 0.00 0.00 0.00 23 1017.0
20260904204547 125 161 0.0 0.0 0.00 0.00 0.00 23 1017.2
20260904204043 123 161 0.0 0.0 0.00 0.00 0.00 23 1017.2
20260904203538 121 161 0.0 0.0 0.00 0.00 0.00 23 1017.2
20260904203035 122 161 0.0 0.0 0.00 0.00 0.00 24 1017.3
20260904202531 121 161 0.0 0.0 0.00 0.00 0.00 23 1017.2
20260904202027 121 162 0.0 0.0 0.00 0.00 0.00 23 1017.4
20260904201521 122 161 0.0 0.0 0.00 0.00 0.00 23 1017.3
20260904201017 123 162 0.0 0.0 0.00 0.00 0.00 23 1017.6
20260904200515 123 161 0.0 0.0 0.00 0.00 0.00 23 1017.4
20260904200011 121 162 0.0 0.0 0.00 0.00 0.00 22 1017.5
20260904195509 115 162 0.0 0.0 0.00 0.00 0.00 26 1017.8
20260904195008 114 162 0.0 0.0 0.00 0.00 0.00 26 1017.8
20260904194503 114 161 0.0 0.0 0.00 0.00 0.00 26 1017.8
20260904193958 116 162 0.0 0.0 0.00 0.00 0.00 27 1017.8
20260904193453 116 161 0.0 0.0 0.00 0.00 0.00 25 1017.9
20260904192949 113 161 0.0 0.0 0.00 0.00 0.00 27 1018.0
20260904192443 111 161 0.0 0.0 0.00 0.00 0.00 29 1018.1
20260904191940 115 161 0.0 0.0 0.00 0.00 0.00 27 1018.0
20260904191436 113 161 0.0 0.0 0.00 0.00 0.00 27 1018.1
20260904190932 113 161 0.0 0.0 0.00 0.00 0.00 27 1018.1
20260904190427 113 161 0.0 0.0 0.00 0.00 0.00 28 1018.2
20260904185923 114 161 0.0 0.0 0.00 0.00 0.00 29 1018.4
20260904185419 113 161 0.0 0.0 0.00 0.00 0.00 29 1018.2
20260904184913 110 161 0.0 0.0 0.00 0.00 0.00 30 1018.3
20260904184407 113 161 0.0 0.0 0.00 0.00 0.00 31 1018.5
20260904183903 116 161 0.0 0.0 0.00 0.00 0.00 27 1018.5
20260904183357 116 161 0.0 0.0 0.00 0.00 0.00 28 1018.5
20260904182853 117 161 0.0 0.0 0.00 0.00 0.00 27 1018.7
20260904182348 116 161 0.0 0.0 0.00 0.00 0.00 28 1018.9
20260904181843 113 161 0.0 0.0 0.00 0.00 0.00 28 1018.6
20260904181338 113 161 0.0 0.0 0.00 0.00 0.00 29 1018.9
20260904180834 116 161 0.0 0.0 0.00 0.00 0.00 27 1018.7
20260904180329 114 161 0.0 0.0 0.00 0.00 0.00 29 1018.7
20260904175828 113 161 0.0 0.0 0.00 0.00 0.00 29 1019.0
20260904175326 110 161 0.0 0.0 0.00 0.00 0.00 29 1019.2
20260904174821 110 161 0.0 0.0 0.00 0.00 0.00 32 1019.2
20260904174317 108 161 0.0 0.0 0.00 0.00 0.00 33 1019.3
20260904173813 108 161 0.0 0.0 0.00 0.00 0.00 33 1019.2
20260904173308 108 161 0.0 0.0 0.00 0.00 0.00 33 1019.4
20260904172804 107 161 0.0 0.0 0.00 0.00 0.00 33 1019.7
20260904172305 110 161 0.0 0.0 0.00 0.00 0.00 32 1019.4
20260904171758 110 161 0.0 0.0 0.00 0.00 0.00 32 1019.6
20260904171253 109 161 0.0 0.0 0.00 0.00 0.00 34 1019.5
20260904170750 107 161 0.0 0.0 0.00 0.00 0.00 34 1019.7
20260904170245 105 161 0.0 0.0 0.00 0.00 0.00 35 1019.6
20260904165744 105 161 0.0 0.0 0.00 0.00 0.00 36 1019.7
20260904165239 108 161 0.0 0.0 0.00 0.00 0.00 34 1019.8
20260904164738 107 161 0.0 0.0 0.00 0.00 0.00 33 1020.0
20260904164234 106 161 0.0 0.0 0.00 0.00 0.00 34 1019.9
20260904163730 106 161 0.0 0.0 0.00 0.00 0.00 35 1019.9
20260904163225 107 162 0.0 0.0 0.00 0.00 0.00 34 1019.9
20260904162724 107 161 0.0 0.0 0.00 0.00 0.00 34 1019.8
20260904162219 107 162 0.0 0.0 0.00 0.00 0.00 34 1019.6
20260904161715 105 162 0.0 0.0 0.00 0.00 0.00 37 1019.6
20260904161209 104 162 0.0 0.0 0.00 0.00 0.00 37 1020.0
20260904160705 104 161 0.0 0.0 0.00 0.00 0.00 38 1019.9
20260904160200 103 162 0.0 0.0 0.00 0.00 0.00 40 1020.1
20260904155655 101 162 0.0 0.0 0.00 0.00 0.00 41 1020.1
20260904155155 101 162 0.0 0.0 0.00 0.00 0.00 40 1020.0
20260904154653 99 162 0.0 0.0 0.00 0.00 0.00 43 1020.0
20260904154153 98 162 0.0 0.0 0.00 0.00 0.00 44 1020.1
20260904153648 99 162 0.0 0.0 0.00 0.00 0.00 43 1020.0
20260904153144 99 162 0.0 0.0 0.00 0.00 0.00 44 1020.1
20260904152640 99 162 0.0 0.0 0.00 0.00 0.00 44 1020.1
20260904152136 98 162 0.0 0.0 0.00 0.00 0.00 45 1020.2
20260904151635 98 162 0.0 0.0 0.00 0.00 0.00 45 1020.1
20260904151134 97 162 0.0 0.0 0.00 0.00 0.00 46 1020.0
20260904150630 96 162 0.0 0.0 0.00 0.00 0.00 48 1019.9
20260904150125 96 162 0.0 0.0 0.00 0.00 0.00 48 1019.9
20260904145624 95 162 0.0 0.0 0.00 0.00 0.00 50 1019.9
20260904145119 94 162 0.0 0.0 0.00 0.00 0.00 50 1019.8
20260904144615 94 162 0.0 0.0 0.00 0.00 0.00 50 1019.9
20260904144111 94 162 0.0 0.0 0.00 0.00 0.00 50 1020.0
20260904143606 94 162 0.0 0.0 0.00 0.00 0.00 51 1019.9
20260904143102 93 162 0.0 0.0 0.00 0.00 0.00 53 1019.7
20260904142559 92 162 0.0 0.0 0.00 0.00 0.00 55 1019.9
20260904142054 91 161 0.0 0.0 0.00 0.00 0.00 56 1019.9
20260904141549 90 162 0.0 0.0 0.00 0.00 0.00 58 1020.0
20260904141044 89 162 0.0 0.0 0.00 0.00 0.00 61 1019.8
20260904140540 88 162 0.0 0.0 0.00 0.00 0.00 62 1019.9
20260904140034 87 162 0.0 0.0 0.00 0.00 0.00 64 1019.9
20260904135534 86 162 0.0 0.0 0.00 0.00 0.00 66 1019.8
20260904135030 86 162 0.0 0.0 0.00 0.00 0.00 66 1019.9
20260904134525 85 162 0.0 0.0 0.00 0.00 0.00 68 1019.8
20260904134019 85 162 0.0 0.0 0.00 0.00 0.00 67 1020.0
20260904133514 84 162 0.0 0.0 0.00 0.00 0.00 69 1020.0
20260904133010 84 162 0.0 0.0 0.00 0.00 0.00 71 1019.9
20260904132509 82 162 0.0 0.0 0.00 0.00 0.00 73 1019.9
20260904132004 81 162 0.0 0.0 0.00 0.00 0.00 75 1020.1
20260904131459 80 162 0.0 0.0 0.00 0.00 0.00 77 1019.7
20260904130954 79 162 0.0 0.0 0.00 0.00 0.00 78 1019.9
20260904130453 78 162 0.0 0.0 0.00 0.00 0.00 81 1019.9
20260904125948 77 162 0.0 0.0 0.00 0.00 0.00 83 1019.7
20260904125445 76 162 0.0 0.0 0.00 0.00 0.00 85 1019.9
20260904124944 75 162 0.0 0.0 0.00 0.00 0.00 88 1019.7
20260904124441 74 162 0.0 0.0 0.00 0.00 0.00 87 1019.6
20260904123936 74 162 0.0 0.0 0.00 0.00 0.00 88 1019.6
20260904123430 73 162 0.0 0.0 0.00 0.00 0.00 89 1019.6
20260904122926 73 162 0.0 0.0 0.00 0.00 0.00 89 1019.5
20260904122426 73 161 0.0 0.0 0.00 0.00 0.00 89 1019.5
20260904121920 73 161 0.0 0.0 0.00 0.00 0.00 88 1019.7
20260904121416 73 161 0.0 0.0 0.00 0.00 0.00 89 1019.4
20260904120913 73 161 0.0 0.0 0.00 0.00 0.00 89 1019.5
20260904120408 72 161 0.0 0.0 0.00 0.00 0.00 89 1019.2
20260904115903 72 160 0.0 0.0 0.00 0.00 0.00 89 1019.4
20260904115359 72 160 0.0 0.0 0.00 0.00 0.00 89 1019.3
20260904114853 72 160 0.0 0.0 0.00 0.00 0.00 89 1019.1
20260904114348 72 160 0.0 0.0 0.00 0.00 0.00 89 1019.2
20260904113843 72 160 0.0 0.0 0.00 0.00 0.00 89 1019.1
20260904113342 72 160 0.0 0.0 0.00 0.00 0.00 89 1019.3
20260904112837 72 160 0.0 0.0 0.00 0.00 0.00 89 1019.1
20260904112333 71 160 0.0 0.0 0.00 0.00 0.00 89 1019.0
20260904111828 71 160 0.0 0.0 0.00 0.00 0.00 90 1019.0
20260904111324 71 160 0.0 0.0 0.00 0.00 0.00 90 1019.2
20260904110820 71 160 0.0 0.0 0.00 0.00 0.00 89 1019.0
20260904110319 71 160 0.0 0.0 0.00 0.00 0.00 89 1019.0
20260904105819 72 160 0.0 0.0 0.00 0.00 0.00 88 1018.7
20260904105319 72 160 0.0 0.0 0.00 0.00 0.00 87 1018.7
20260904104814 72 160 0.0 0.0 0.00 0.00 0.00 87 1018.9
20260904104309 73 160 0.0 0.0 0.00 0.00 0.00 85 1019.0
20260904103807 73 160 0.0 0.0 0.00 0.00 0.00 85 1018.9
20260904103306 74 160 0.0 0.0 0.00 0.00 0.00 84 1018.7
20260904102801 74 160 0.0 0.0 0.00 0.00 0.00 84 1018.9
20260904102258 74 160 0.0 0.0 0.00 0.00 0.00 84 1018.5
20260904101753 74 160 0.0 0.0 0.00 0.00 0.00 83 1018.4
20260904101249 74 160 0.0 0.0 0.00 0.00 0.00 83 1018.4
20260904100745 75 160 0.0 0.0 0.00 0.00 0.00 83 1018.4
20260904100240 75 160 0.0 0.0 0.00 0.00 0.00 83 1018.4
20260904095740 75 160 0.0 0.0 0.00 0.00 0.00 83 1018.3
20260904095235 75 160 0.0 0.0 0.00 0.00 0.00 82 1018.3
20260904094731 75 160 0.0 0.0 0.00 0.00 0.00 82 1018.3
20260904094230 75 160 0.0 0.0 0.00 0.00 0.00 82 1018.3
20260904093727 75 160 0.0 0.0 0.00 0.00 0.00 82 1018.2
20260904093226 75 160 0.0 0.0 0.00 0.00 0.00 81 1018.2
20260904092722 75 160 0.0 0.0 0.00 0.00 0.00 81 1018.3
20260904092218 75 160 0.0 0.0 0.00 0.00 0.00 81 1018.1
20260904091714 75 161 0.0 0.0 0.00 0.00 0.00 80 1017.9
20260904091209 75 161 0.0 0.0 0.00 0.00 0.00 80 1017.8
20260904090705 75 161 0.0 0.0 0.00 0.00 0.00 80 1018.1
20260904090200 76 161 0.0 0.0 0.00 0.00 0.00 80 1018.0
20260904085655 76 161 0.0 0.0 0.00 0.00 0.00 80 1017.9
20260904085149 75 161 0.0 0.0 0.00 0.00 0.00 80 1018.0
20260904084644 75 161 0.0 0.0 0.00 0.00 0.00 81 1017.9
20260904084141 75 161 0.0 0.0 0.00 0.00 0.00 80 1017.9
20260904083637 75 161 0.0 0.0 0.00 0.00 0.00 80 1017.9
20260904083133 75 161 0.0 0.0 0.00 0.00 0.00 81 1017.8
20260904082627 75 161 0.0 0.0 0.00 0.00 0.00 81 1017.8
20260904082123 75 161 0.0 0.0 0.00 0.00 0.00 81 1017.8
20260904081613 75 161 0.0 0.0 0.00 0.00 0.00 80 1017.6
20260904081108 75 161 0.0 0.0 0.00 0.00 0.00 80 1017.7
20260904080603 75 161 0.0 0.0 0.00 0.00 0.00 80 1017.8
20260904080059 75 161 0.0 0.0 0.00 0.00 0.00 79 1017.7
20260904075555 76 161 0.0 0.0 0.00 0.00 0.00 79 1018.0
20260904075050 76 161 0.0 0.0 0.00 0.00 0.00 78 1017.9
20260904074549 76 161 0.0 0.0 0.00 0.00 0.00 78 1017.9
20260904074044 76 161 0.0 0.0 0.00 0.00 0.00 77 1017.9
20260904073539 76 161 0.0 0.0 0.00 0.00 0.00 77 1017.8
20260904073035 76 161 0.0 0.0 0.00 0.00 0.00 77 1017.7
20260904072531 77 161 0.0 0.0 0.00 0.00 0.00 77 1017.8
20260904072026 77 161 0.0 0.0 0.00 0.00 0.00 76 1017.8
20260904071522 77 161 0.0 0.0 0.00 0.00 0.00 76 1017.8
20260904071016 77 161 0.0 0.0 0.00 0.00 0.00 76 1017.7
20260904070515 77 161 0.0 0.0 0.00 0.00 0.00 76 1017.7
20260904070009 77 161 0.0 0.0 0.00 0.00 0.00 75 1017.6
20260904065505 77 161 0.0 0.0 0.00 0.00 0.00 75 1017.7
20260904065000 77 161 0.0 0.0 0.00 0.00 0.00 75 1017.7
20260904064456 78 161 0.0 0.0 0.00 0.00 0.00 74 1017.5
20260904063951 77 161 0.0 0.0 0.00 0.00 0.00 75 1017.6
20260904063448 77 161 0.0 0.0 0.00 0.00 0.00 75 1017.6
20260904062943 77 161 0.0 0.0 0.00 0.00 0.00 75 1017.7
20260904062439 77 161 0.0 0.0 0.00 0.00 0.00 75 1017.6
20260904061934 78 161 0.0 0.0 0.00 0.00 0.00 74 1017.6
20260904061431 78 161 0.0 0.0 0.00 0.00 0.00 74 1017.6
20260904060926 78 161 0.0 0.0 0.00 0.00 0.00 74 1017.7
20260904060422 78 161 0.0 0.0 0.00 0.00 0.00 74 1017.7
20260904055917 78 161 0.0 0.0 0.00 0.00 0.00 73 1017.8
20260904055413 78 161 0.0 0.0 0.00 0.00 0.00 73 1017.6
20260904054909 78 161 0.0 0.0 0.00 0.00 0.00 72 1017.9
20260904054404 79 161 0.0 0.0 0.00 0.00 0.00 72 1017.8
20260904053900 79 161 0.0 0.0 0.00 0.00 0.00 72 1017.7
20260904053358 79 161 0.0 0.0 0.00 0.00 0.00 72 1017.7
20260904052855 79 161 0.0 0.0 0.00 0.00 0.00 71 1017.4
20260904052351 79 161 0.0 0.0 0.00 0.00 0.00 72 1017.7
20260904051847 79 161 0.0 0.0 0.00 0.00 0.00 72 1017.7
20260904051342 79 161 0.0 0.0 0.00 0.00 0.00 71 1017.7
20260904050837 79 161 0.0 0.0 0.00 0.00 0.00 71 1017.6
20260904050333 79 161 0.0 0.0 0.00 0.00 0.00 71 1017.7
20260904045828 79 161 0.0 0.0 0.00 0.00 0.00 71 1017.6
20260904045323 79 161 0.0 0.0 0.00 0.00 0.00 71 1017.4
20260904044822 79 161 0.0 0.0 0.00 0.00 0.00 71 1017.6
20260904044319 79 161 0.0 0.0 0.00 0.00 0.00 70 1017.7
20260904043815 80 161 0.0 0.0 0.00 0.00 0.00 70 1017.5
20260904043311 79 161 0.0 0.0 0.00 0.00 0.00 70 1017.6
20260904042806 80 161 0.0 0.0 0.00 0.00 0.00 69 1017.7
20260904042306 80 161 0.0 0.0 0.00 0.00 0.00 69 1017.7
20260904041802 80 161 0.0 0.0 0.00 0.00 0.00 68 1017.7
20260904041258 80 161 0.0 0.0 0.00 0.00 0.00 68 1017.6
20260904040754 81 161 0.0 0.0 0.00 0.00 0.00 67 1017.7
20260904040249 81 161 0.0 0.0 0.00 0.00 0.00 67 1017.7
20260904035745 81 161 0.0 0.0 0.00 0.00 0.00 66 1017.7
20260904035241 81 161 0.0 0.0 0.00 0.00 0.00 66 1017.9
20260904034739 81 161 0.0 0.0 0.00 0.00 0.00 65 1017.7
20260904034236 81 161 0.0 0.0 0.00 0.00 0.00 65 1017.8
20260904033731 81 161 0.0 0.0 0.00 0.00 0.00 64 1017.7
20260904033228 81 161 0.0 0.0 0.00 0.00 0.00 64 1017.8
20260904032723 82 161 0.0 0.0 0.00 0.00 0.00 63 1017.7